Home   Weather   Lyon   Past weeks

Flag for France Past Weather in Lyon, Rhône-Alpes, France — Yesterday and Last 2 Weeks

57 °F


Feels Like: 55 °F
Forecast: 50 / 61 °F
Wind: 8 mph from North

Location: Lyon / Bron

Current Time: Oct 26, 2016 at 7:24:17 PM

Latest Report: Oct 26, 2016 at 7:00 PM

Visibility: N/A

Pressure: 30.33 "Hg

Humidity: 82%

Dew Point: 52 °F

Location of LyonLocation

Past Weather in Lyon — Graph


Lyon Temperature Yesterday

Maximum temperature yesterday: 61 °F (at 3:00 PM)
Minimum temperature yesterday: 59 °F (at 12:00 AM)
Average temperature yesterday: 59 °F

High & Low Weather Summary for the Past Weeks

High75 °F (Oct 24, 2:00 PM)100% (Oct 12, 8:30 AM)30.30 "Hg (Oct 12, 8:30 AM)
Low34 °F (Oct 12, 7:00 AM)43% (Oct 15, 4:30 PM)29.59 "Hg (Oct 14, 7:00 AM)
Average54 °F82%30.01 "Hg
* Reported Oct 11 6:00 PM — Oct 26 6:00 PM, Lyon, Weather by CustomWeather, © 2016

Note: Actual official high and low records may vary slightly from our data, if they occured in-between our weather recording intervals... More about our weather records


Lyon Weather History for the Previous 24 Hours

Scroll right to see more
Time TempWeatherWind HumidityBarometerVisibility
6:00 PM
Wed, Oct 26
57 °FOvercast.9 mph88%30.30 "HgN/A
5:30 PM57 °FOvercast.10 mph88%30.30 "HgN/A
5:00 PM57 °FOvercast.12 mph88%30.30 "HgN/A
4:30 PM57 °FOvercast.9 mph88%30.30 "HgN/A
4:00 PM57 °FOvercast.9 mph88%30.30 "HgN/A
3:30 PM59 °FMostly cloudy.10 mph82%30.30 "HgN/A
3:00 PM59 °FMostly cloudy.10 mph88%30.30 "HgN/A
2:30 PM59 °FMostly cloudy.9 mph88%30.30 "HgN/A
2:00 PM59 °FOvercast.8 mph88%30.30 "HgN/A
1:30 PM59 °FLow clouds.7 mph88%30.30 "HgN/A
1:00 PM57 °FLow clouds.8 mph94%30.30 "HgN/A
12:30 PM57 °FLow clouds.9 mph94%30.30 "HgN/A
12:00 PM57 °FLight rain. Low clouds.7 mph94%30.30 "HgN/A
11:30 AM57 °FLight rain. Low clouds.7 mph94%30.30 "HgN/A
11:00 AM57 °FRain. Low clouds.6 mph94%30.30 "Hg5 mi
10:30 AM57 °FLight rain. Low clouds.6 mph94%30.27 "HgN/A
10:00 AM57 °FLow clouds.6 mph94%30.27 "HgN/A
9:30 AM57 °FLow clouds.8 mph94%30.27 "HgN/A
9:00 AM57 °FLow clouds.8 mph94%30.24 "HgN/A
8:30 AM57 °FLight rain. Partly sunny.6 mph94%30.24 "HgN/A
8:00 AM57 °FMostly cloudy.8 mph100%30.24 "Hg6 mi
7:30 AM59 °FMostly cloudy.5 mph94%30.24 "Hg5 mi
7:00 AM59 °FMostly cloudy.3 mph94%30.21 "Hg4 mi
6:30 AM59 °FLow clouds.3 mph94%30.21 "Hg4 mi
6:00 AM59 °FLow clouds.2 mph94%30.21 "Hg4 mi
5:30 AM59 °FLow clouds.3 mph94%30.21 "Hg4 mi
5:00 AM59 °FMostly cloudy.2 mph94%30.21 "Hg4 mi
4:30 AM59 °FLow clouds.3 mph94%30.21 "Hg4 mi
4:00 AM59 °FLow clouds.3 mph94%30.21 "Hg4 mi
3:30 AM59 °FLow clouds.3 mph94%30.21 "Hg4 mi
3:00 AM59 °FLow clouds.3 mph94%30.21 "Hg4 mi
2:30 AM59 °FLow clouds.3 mph94%30.21 "Hg4 mi
2:00 AM59 °FMostly cloudy.No wind94%30.21 "Hg4 mi
1:30 AM59 °FOvercast.No wind94%30.21 "Hg4 mi
1:00 AM59 °FLow clouds.3 mph94%30.21 "Hg4 mi
12:30 AM59 °FLow clouds.2 mph94%30.24 "Hg5 mi
12:00 AM59 °FLow clouds.2 mph100%30.24 "HgN/A
11:30 PM
Tue, Oct 25
59 °FLow clouds.2 mph100%30.24 "HgN/A
11:00 PM59 °FLow clouds.2 mph100%30.24 "Hg6 mi
10:30 PM59 °FMostly cloudy.1 mph100%30.24 "Hg6 mi
10:00 PM59 °FLow clouds.No wind100%30.24 "Hg4 mi
9:30 PM59 °FMostly cloudy.No wind100%30.21 "Hg5 mi
9:00 PM59 °FLow clouds.No wind94%30.21 "Hg6 mi
8:30 PM59 °FMostly cloudy.No wind100%30.21 "Hg6 mi
8:00 PM59 °FMostly cloudy.2 mph94%30.21 "HgN/A
7:30 PM59 °FLight rain. Mostly cloudy.3 mph94%30.18 "HgN/A
7:00 PM61 °FRain. Overcast.7 mph88%30.18 "HgN/A
Weather by CustomWeather, © 2016

See weather overviewHow to use our weather pages